DW6386 Weather Reports


time (UTC)temp
C
wind
direction
speed
KPH
gust
KPH
rain 1hr
cm
rain 24hr
cm
rain mn
cm
humidity
%
barometer
mb
20260901134518 26 250 0.0 1.6 0.00 0.64 0.00 89 1019.3
20260901133014 26 228 0.0 1.6 0.00 0.64 0.00 94 1019.2
20260901131510 25 139 0.0 0.0 0.00 0.64 0.00 96 1019.3
20260901130008 24 139 0.0 0.0 0.00 0.64 0.00 98 1019.5
20260901124505 23 139 0.0 0.0 0.00 0.64 0.00 99 1019.4
20260901123001 22 139 0.0 0.0 0.00 0.64 0.00 99 1019.3
20260901121559 22 139 0.0 0.0 0.00 0.64 0.00 99 1019.1
20260901120056 20 139 0.0 0.0 0.00 0.64 0.00 99 1018.9
20260901114554 20 139 0.0 0.0 0.00 0.64 0.00 99 1018.6
20260901113051 20 139 0.0 0.0 0.00 0.64 0.00 99 1018.3
20260901111548 20 139 0.0 0.0 0.00 0.64 0.00 99 1018.1
20260901110049 20 139 0.0 0.0 0.00 0.64 0.00 99 1017.9
20260901104550 20 139 0.0 0.0 0.00 0.64 0.00 99 1017.8
20260901103045 20 139 0.0 0.0 0.00 0.64 0.00 99 1017.7
20260901101545 20 139 0.0 0.0 0.00 0.64 0.00 99 1017.7
20260901100051 20 139 0.0 0.0 0.00 0.64 0.00 99 1017.6
20260901094548 20 139 0.0 0.0 0.00 0.64 0.00 99 1017.6
20260901093040 20 139 0.0 0.0 0.00 0.64 0.00 99 1017.6
20260901091543 20 139 0.0 0.0 0.00 0.64 0.00 99 1017.5
20260901090051 20 139 0.0 0.0 0.00 0.64 0.00 98 1017.4
20260901084538 20 139 0.0 0.0 0.00 0.64 0.00 99 1017.4
20260901083037 20 139 0.0 0.0 0.00 0.64 0.00 99 1017.2
20260901081535 20 139 0.0 0.0 0.00 0.64 0.00 98 1017.4
20260901080035 20 139 0.0 0.0 0.00 0.64 0.00 98 1017.3
20260901074533 20 139 0.0 0.0 0.00 0.64 0.00 98 1017.4
20260901073033 20 139 0.0 0.0 0.00 0.64 0.00 98 1017.5
20260901071532 21 139 0.0 0.0 0.00 0.64 0.00 98 1017.6
20260901070044 21 146 0.0 0.0 0.00 0.64 0.00 98 1017.7
20260901064530 20 146 0.0 0.0 0.00 0.64 0.00 98 1017.7
20260901063033 21 146 0.0 0.0 0.00 0.64 0.00 98 1017.6
20260901061527 21 146 0.0 0.0 0.00 0.64 0.00 98 1017.6
20260901060034 21 146 0.0 0.0 0.00 0.64 0.00 98 1017.7
20260901054526 21 146 0.0 0.0 0.00 0.64 0.00 98 1017.7
20260901053024 21 146 0.0 0.0 0.00 0.64 0.00 97 1017.9
20260901051523 21 146 0.0 0.0 0.00 0.64 0.00 97 1017.8
20260901050020 21 146 0.0 0.0 0.00 0.64 0.00 97 1017.6
20260901044520 21 146 0.0 0.0 0.00 0.64 0.00 97 1017.5
20260901043018 21 146 0.0 0.0 0.00 0.64 0.00 97 1017.6
20260901041516 21 146 0.0 0.0 0.00 0.64 0.00 97 1017.6
20260901040017 21 146 0.0 0.0 0.00 0.64 0.64 96 1017.6
20260901034513 21 146 0.0 0.0 0.00 0.64 0.64 96 1017.4
20260901033029 21 146 0.0 0.0 0.00 0.64 0.64 96 1017.4
20260901031520 22 146 0.0 0.0 0.00 0.64 0.64 96 1017.3
20260901030012 22 146 0.0 0.0 0.00 0.64 0.64 96 1017.3
20260901024512 22 146 0.0 0.0 0.00 0.64 0.64 96 1017.3
20260901023011 22 146 0.0 0.0 0.00 0.64 0.64 95 1017.4
20260901021514 22 146 0.0 0.0 0.00 0.64 0.64 95 1017.2
20260901020011 22 146 0.0 0.0 0.00 0.64 0.64 94 1017.1
20260901014510 23 146 0.0 0.0 0.00 0.64 0.64 94 1017.1
20260901013010 23 146 0.0 0.0 0.00 0.64 0.64 94 1016.9
20260901011512 23 146 0.0 0.0 0.00 0.64 0.64 93 1016.6
20260901010025 23 146 0.0 0.0 0.00 0.64 0.64 93 1016.5
20260901004508 24 146 0.0 0.0 0.00 0.64 0.64 92 1016.3
20260901003007 25 146 0.0 0.0 0.00 0.64 0.64 93 1016.5
20260901001506 25 146 0.0 0.0 0.00 0.64 0.64 92 1016.4
20260901000005 26 146 0.0 0.0 0.00 0.64 0.64 90 1016.4
20260831234504 27 146 0.0 0.0 0.00 0.64 0.64 90 1016.4
20260831233004 27 146 0.0 0.0 0.00 0.64 0.64 90 1016.5
20260831231502 27 146 0.0 0.0 0.00 0.64 0.64 89 1016.6
20260831230002 27 146 0.0 0.0 0.00 0.64 0.64 90 1016.6
20260831224501 27 146 0.0 0.0 0.00 0.64 0.64 91 1016.7
20260831223109 27 146 0.0 0.0 0.00 0.64 0.64 91 1016.8
20260831221604 26 146 0.0 0.0 0.00 0.64 0.64 89 1016.8
20260831220057 27 146 0.0 0.0 0.00 0.64 0.64 91 1016.9
20260831214557 26 146 0.0 0.0 0.00 0.64 0.64 90 1017.0
20260831213058 26 146 0.0 0.0 0.00 0.64 0.64 90 1017.1
20260831211607 27 146 0.0 0.0 0.00 0.64 0.64 91 1017.2
20260831210053 27 146 0.0 0.0 0.00 0.64 0.64 91 1017.2
20260831204552 27 146 0.0 0.0 0.00 0.64 0.64 92 1017.4
20260831203055 27 146 0.0 0.0 0.00 0.64 0.64 93 1017.5
20260831201558 27 146 0.0 0.0 0.00 0.64 0.64 94 1017.5
20260831200048 26 146 0.0 0.0 0.00 0.64 0.64 95 1017.8
20260831194634 26 146 0.0 0.0 0.00 0.64 0.64 94 1018.1
20260831193047 25 146 0.0 0.0 0.00 0.64 0.64 95 1018.2
20260831191547 25 146 0.0 1.6 0.00 0.64 0.64 95 1018.3
20260831190057 25 146 0.0 0.0 0.00 0.64 0.64 94 1018.4
20260831184555 24 146 0.0 0.0 0.33 0.64 0.64 94 1018.4
20260831183046 24 146 0.0 0.0 0.64 0.64 0.64 93 1018.6
20260831181549 24 147 0.0 3.2 0.64 0.64 0.64 89 1019.0
20260831180044 25 122 0.0 3.2 0.64 0.64 0.64 82 1019.1
20260831174544 30 136 1.6 6.4 0.23 0.23 0.23 69 1019.2
20260831173042 32 157 0.0 4.8 0.00 0.00 0.00 58 1018.8
20260831171544 32 90 3.2 8.0 0.00 0.00 0.00 60 1018.8
20260831170036 32 79 1.6 6.4 0.00 0.00 0.00 63 1019.0
20260831164635 32 353 3.2 6.4 0.00 0.00 0.00 66 1019.1
20260831163038 32 63 1.6 6.4 0.00 0.00 0.00 67 1019.2
20260831161533 31 271 1.6 8.0 0.00 0.00 0.00 68 1019.4
20260831160028 31 61 3.2 6.4 0.00 0.00 0.00 66 1019.5
20260831154533 30 48 1.6 6.4 0.00 0.00 0.00 70 1019.7
20260831153034 30 288 1.6 9.7 0.00 0.00 0.00 72 1019.7
20260831151522 30 289 0.0 4.8 0.00 0.00 0.00 70 1019.7
20260831150018 30 19 0.0 8.0 0.00 0.00 0.00 70 1019.6
20260831144515 28 353 0.0 1.6 0.00 0.00 0.00 74 1019.6
20260831143013 28 214 0.0 4.8 0.00 0.00 0.00 76 1019.7
20260831141512 28 184 0.0 1.6 0.00 0.00 0.00 77 1019.6
20260831140007 27 210 0.0 0.0 0.00 0.00 0.00 80 1019.7